FOX-1CLIFF (AO-95)

Last updated on Thu Oct 30 2025 00:03:10 GMT+0000 (Coordinated Universal Time)

1 43770U 18099N 25302.12648188 .00015946 00000+0 73328-3 0 9998 2 43770 97.4739 358.7742 0011371 82.0130 278.2395 15.20374693378032
UTC large
Height (km)
Speed (km/s)
/
Latitude / Longitude
Inclination (degrees)
Orbital Period (minutes)
Azimuth
Elevation
Range (km)
Doppler Factor

Next 0 passes for location: London (51.5072 / 0.1276)

Sorry there are no passes over London.